Location: San Martino di Castrozza
(46.2667°N, 11.8000°E)
Time: 16:34:55
(UTC+00:00)

Meteor 1-28 Rocket - Pass Details

Date: 23 April 2021
Orbit: 502 x 522 km, 97.4° (Epoch: 12 May)

Event Time Altitude Azimuth Distance (km) Brightness Sun altitude
Exits shadow 02:26:37 31° 265° (W) 902 4.0 -16.7°
Drops below altitude 10° 02:29:56 10° 328° (NNW) 1,727 5.9 -16.2°
Sets 02:32:12 0° 339° (NNW) 2,615 7.0 -15.9°
